EW8787 Weather Reports


Display with metric or nautical units.
time (UTC)temp
F
wind
direction
speed
MPH
gust
MPH
rain 1hr
in
rain 24hr
in
rain mn
in
humidity
%
barometer
mb
20190922101531 65 171 0.0 0.0 0.00 0.00 0.00 95 1020.7
20190922100045 65 171 0.0 0.0 0.00 0.00 0.00 95 1020.7
20190922094612 65 171 0.0 0.0 0.00 0.00 0.00 95 1020.7
20190922093033 65 171 0.0 0.0 0.00 0.00 0.00 95 1020.7
20190922091559 65 171 0.0 0.0 0.00 0.00 0.00 95 1020.6
20190922090054 65 171 0.0 0.0 0.00 0.00 0.00 95 1020.5
20190922084524 65 171 0.0 0.0 0.00 0.00 0.00 95 1020.6
20190922083030 65 171 0.0 0.0 0.00 0.00 0.00 95 1020.6
20190922081533 65 171 0.0 0.0 0.00 0.00 0.00 95 1020.7
20190922080033 65 171 0.0 0.0 0.00 0.00 0.00 94 1020.6
20190922074515 65 171 0.0 0.0 0.00 0.00 0.00 94 1020.7
20190922073034 65 171 0.0 0.0 0.00 0.00 0.00 94 1020.7
20190922071526 65 171 0.0 0.0 0.00 0.00 0.00 94 1020.8
20190922070005 65 171 0.0 0.0 0.00 0.00 0.00 94 1021.0
20190922064507 65 171 0.0 0.0 0.00 0.00 0.00 93 1021.2
20190922063009 65 171 0.0 0.0 0.00 0.00 0.00 93 1021.3
20190922061502 65 171 0.0 0.0 0.00 0.00 0.00 92 1021.6
20190922060200 65 171 0.0 0.0 0.00 0.00 0.00 92 1021.7
20190922054646 65 171 0.0 0.0 0.00 0.00 0.00 92 1021.7
20190922053157 65 171 0.0 0.0 0.00 0.00 0.00 92 1021.7
20190922051646 65 171 0.0 0.0 0.00 0.00 0.00 92 1021.8
20190922050253 65 171 0.0 0.0 0.00 0.00 0.00 90 1021.9
20190922044655 66 171 0.0 0.0 0.00 0.00 0.00 90 1021.8
20190922043146 66 171 0.0 0.0 0.00 0.00 0.00 89 1021.8
20190922041651 66 171 0.0 0.0 0.00 0.00 0.00 89 1021.8
20190922040105 66 171 0.0 0.0 0.00 0.00 0.00 88 1021.7
20190922034655 66 171 0.0 0.0 0.00 0.00 0.00 88 1021.8
20190922033215 66 171 0.0 0.0 0.00 0.00 0.00 87 1021.7
20190922031614 67 171 0.0 0.0 0.00 0.00 0.00 87 1021.8
20190922030208 67 171 0.0 0.0 0.00 0.00 0.00 86 1021.7
20190922024604 67 171 0.0 0.0 0.00 0.00 0.00 86 1021.7
20190922023144 67 171 0.0 0.0 0.00 0.00 0.00 85 1021.7
20190922021611 67 171 0.0 0.0 0.00 0.00 0.00 84 1021.7
20190922020123 68 171 0.0 0.0 0.00 0.00 0.00 84 1021.7
20190922014632 68 171 0.0 0.0 0.00 0.00 0.00 83 1021.6
20190922013136 69 171 0.0 0.0 0.00 0.00 0.00 83 1021.6
20190922011704 69 171 0.0 0.0 0.00 0.00 0.00 81 1021.4
20190922010132 70 171 0.0 0.0 0.00 0.00 0.00 79 1021.3
20190922004702 71 171 0.0 0.0 0.00 0.00 0.00 75 1021.2
20190922003114 72 171 0.0 0.0 0.00 0.00 0.00 74 1021.2
20190922001735 73 171 0.0 0.0 0.00 0.00 0.00 72 1021.2
20190922000117 74 171 0.0 0.0 0.00 0.00 0.00 70 1021.1
20190921234629 74 171 0.0 0.0 0.00 0.00 0.00 71 1021.1
20190921233121 74 184 0.0 0.0 0.00 0.00 0.00 73 1021.1
20190921231617 74 268 0.0 0.0 0.00 0.00 0.00 70 1020.7
20190921230123 75 268 0.0 0.0 0.00 0.00 0.00 69 1020.7
20190921224633 76 268 0.0 0.0 0.00 0.00 0.00 68 1020.7
20190921223119 77 268 0.0 0.0 0.00 0.00 0.00 66 1020.7
20190921221711 78 268 0.0 0.0 0.00 0.00 0.00 64 1020.6
20190921220052 79 268 0.0 0.0 0.00 0.00 0.00 64 1020.6
20190921214618 80 268 0.0 0.0 0.00 0.00 0.00 60 1020.7
20190921213147 81 268 0.0 0.0 0.00 0.00 0.00 58 1020.7
20190921211602 81 268 0.0 0.0 0.00 0.00 0.00 57 1020.7
20190921210145 82 268 0.0 2.0 0.00 0.00 0.00 56 1020.7
20190921204650 82 268 0.0 1.0 0.00 0.00 0.00 53 1020.7
20190921203118 82 268 0.0 1.0 0.00 0.00 0.00 52 1020.7
20190921201540 82 267 0.0 2.0 0.00 0.00 0.00 53 1020.8
20190921200110 83 212 0.0 2.0 0.00 0.00 0.00 49 1020.9
20190921194623 83 150 0.0 3.0 0.00 0.00 0.00 47 1021.2
20190921193137 83 306 0.0 4.0 0.00 0.00 0.00 52 1021.2
20190921191542 82 104 0.0 3.0 0.00 0.00 0.00 52 1021.3
20190921190042 82 295 0.0 7.0 0.00 0.00 0.00 51 1021.4
20190921184602 82 355 1.0 4.0 0.00 0.00 0.00 54 1021.5
20190921183103 80 19 2.0 7.0 0.00 0.00 0.00 54 1021.6
20190921181523 80 42 3.0 6.0 0.00 0.00 0.00 60 1021.7
20190921180038 79 28 3.0 6.0 0.00 0.00 0.00 59 1021.8
20190921174523 78 59 2.0 7.0 0.00 0.00 0.00 61 1021.9
20190921173017 78 26 1.0 5.0 0.00 0.00 0.00 62 1022.2
20190921171513 78 22 0.0 5.0 0.00 0.00 0.00 63 1022.3
20190921170008 76 46 2.0 5.0 0.00 0.00 0.00 64 1022.5
20190921164512 75 15 1.0 5.0 0.00 0.00 0.00 71 1022.7
20190921161632 74 35 4.0 6.0 0.00 0.00 0.00 71 1022.9
20190921160223 74 355 3.0 6.0 0.00 0.00 0.00 71 1023.3
20190921154726 73 46 2.0 6.0 0.00 0.00 0.00 70 1023.3
20190921153123 73 15 2.0 5.0 0.00 0.00 0.00 75 1023.4
20190921151836 73 31 1.0 5.0 0.00 0.00 0.00 77 1023.6
20190921150139 73 347 2.0 4.0 0.00 0.00 0.00 76 1023.5
20190921144624 73 316 0.0 4.0 0.00 0.00 0.00 75 1023.6
20190921143134 72 313 0.0 5.0 0.00 0.00 0.00 76 1023.7
20190921141551 71 185 0.0 3.0 0.00 0.00 0.00 80 1023.7
20190921140037 70 185 3.0 7.0 0.00 0.00 0.00 78 1023.7
20190921134643 69 188 3.0 5.0 0.00 0.00 0.00 81 1023.7
20190921133026 68 189 1.0 4.0 0.00 0.00 0.00 85 1023.8
20190921131547 66 192 3.0 6.0 0.00 0.00 0.00 87 1023.8
20190921130053 65 198 1.0 5.0 0.00 0.00 0.00 89 1023.8
20190921124511 63 199 4.0 5.0 0.00 0.00 0.00 91 1023.8
20190921123011 62 199 0.0 4.0 0.00 0.00 0.00 95 1023.7
20190921121656 60 130 0.0 0.0 0.00 0.00 0.00 95 1023.7
20190921120134 59 130 0.0 0.0 0.00 0.00 0.00 96 1023.5
20190921114637 58 130 0.0 0.0 0.00 0.00 0.00 96 1023.5
20190921113146 57 186 0.0 0.0 0.00 0.00 0.00 96 1023.5
20190921111623 57 186 0.0 0.0 0.00 0.00 0.00 96 1023.6
20190921110120 57 186 0.0 0.0 0.00 0.00 0.00 95 1023.4
20190921104610 57 186 0.0 0.0 0.00 0.00 0.00 95 1023.4
20190921103057 57 186 0.0 0.0 0.00 0.00 0.00 95 1023.3